Location: *
(46.1866°S, 178.5290°W)
Time: 10:42:07
(UTC+00:00)

Cosmos 2369 Rocket - Pass Details

Date: 19 May 2021
Orbit: 827 x 854 km, 71.0° (Epoch: 12 June)

Event Time Altitude Azimuth Distance (km) Brightness Sun altitude
Rises 06:03:57 0° 202° (SSW) 3,419 5.5 -16.4°
Reaches altitude 10° 06:06:39 10° 193° (SSW) 2,475 4.7 -16.9°
Maximum altitude 06:11:49 35° 127° (SE) 1,335 2.8 -17.8°
Enters shadow 06:13:11 31° 99° (E) 1,441 2.8 -18.0°
